User: anonymous   Login
Location: Unspecified
(0.0000°N, 0.0000°E)
Time: 05:29:56
(UTC+00:00)
Language:

KORONAS-FOTON - Orbit

View from above orbital plane
View from above orbital plane
View from above satellite
View from above satellite

Ground track
Ground track

The orbit data is extracted from the following two-line orbital elements,

1 33504U 09003A   15029.20223917  .00004959  00000-0  28473-3 0  2346
2 33504 082.4426 016.2828 0018919 227.4743 260.8403 15.12170202329858
Epoch (UTC): 29 January 2015 04:51:13
Eccentricity: 0.0018919
inclination: 82.4426°
perigee height: 516 km
apogee height: 542 km
right ascension of ascending node: 16.2828°
argument of perigee: 227.4743°
revolutions per day: 15.12170202
mean anomaly at epoch: 260.8403°
orbit number at epoch: 32985

The dashed part of the orbit path shows where the satellite is in the earth's shadow,  

DLR